,,Stat6,,Stat2,,Stat8,,Stat9,,Stat10,,Wind1,,Wind1,
time,status,PA1M_AVG,status,PR1M_SUM,status,RH1M_AVG,status,SR1M_AVG,status,TA1M_AVG,status,W1dAve1m,status,W1sAve1m,
2007-11-23, 00:00:00,VALID,917.86,VALID,0,VALID,100,VALID,-0.0169808,VALID,19.1338,VALID,188,VALID,0.832126,
2007-11-23, 00:01:00,VALID,917.861,VALID,0,VALID,100,VALID,0,VALID,19.1209,VALID,178,VALID,1.0018,
2007-11-23, 00:02:00,VALID,917.859,VALID,0,VALID,100,VALID,0,VALID,19.1246,VALID,170,VALID,0.866211,
2007-11-23, 00:03:00,VALID,917.841,VALID,0,VALID,100,VALID,-0.0339617,VALID,19.1144,VALID,207,VALID,0.582209,
2007-11-23, 00:04:00,VALID,917.837,VALID,0,VALID,100,VALID,-0.0339617,VALID,19.1243,VALID,188,VALID,1.508,
2007-11-23, 00:05:00,VALID,917.824,VALID,0,VALID,100,VALID,0,VALID,19.1243,VALID,191,VALID,1.25254,
2007-11-23, 00:06:00,VALID,917.81,VALID,0,VALID,100,VALID,0,VALID,19.1276,VALID,190,VALID,1.34051,
2007-11-23, 00:07:00,VALID,917.799,VALID,0,VALID,100,VALID,0,VALID,19.1176,VALID,191,VALID,1.7038,
2007-11-23, 00:08:00,VALID,917.779,VALID,0,VALID,100,VALID,0,VALID,19.1174,VALID,203,VALID,1.17951,
2007-11-23, 00:09:00,VALID,917.761,VALID,0,VALID,100,VALID,0,VALID,19.1176,VALID,179,VALID,0.952381,
2007-11-23, 00:10:00,VALID,917.76,VALID,0,VALID,100,VALID,-0.0169808,VALID,19.1141,VALID,207,VALID,1.29129,
2007-11-23, 00:11:00,VALID,917.745,VALID,0,VALID,100,VALID,-0.0169808,VALID,19.1109,VALID,217,VALID,0.9,
2007-11-23, 00:12:00,VALID,917.737,VALID,0,VALID,100,VALID,0.0339617,VALID,19.0977,VALID,204,VALID,0.960029,
2007-11-23, 00:13:00,VALID,917.732,VALID,0,VALID,100,VALID,0.0339617,VALID,19.0949,VALID,201,VALID,0.976376,
2007-11-23, 00:14:00,VALID,917.717,VALID,0,VALID,100,VALID,0,VALID,19.0854,VALID,204,VALID,1.34684,
2007-11-23, 00:15:00,VALID,917.708,VALID,0,VALID,100,VALID,0.0169808,VALID,19.0652,VALID,203,VALID,1.35883,
2007-11-23, 00:16:00,VALID,917.691,VALID,0,VALID,100,VALID,0.0169808,VALID,19.0525,VALID,208,VALID,1.20122,
2007-11-23, 00:17:00,VALID,917.68,VALID,0,VALID,100,VALID,0,VALID,19.0233,VALID,205,VALID,1.1002,
2007-11-23, 00:18:00,VALID,917.665,VALID,0,VALID,100,VALID,0.0169808,VALID,19.0133,VALID,202,VALID,0.983789,
2007-11-23, 00:19:00,VALID,917.662,VALID,0,VALID,100,VALID,0,VALID,18.9874,VALID,204,VALID,1.18359,
2007-11-23, 00:20:00,VALID,917.635,VALID,0,VALID,100,VALID,0,VALID,18.9617,VALID,198,VALID,1.04705,
2007-11-23, 00:21:00,VALID,917.62,VALID,0,VALID,100,VALID,-0.0169808,VALID,18.939,VALID,205,VALID,0.861178,
2007-11-23, 00:22:00,VALID,917.604,VALID,0,VALID,100,VALID,0,VALID,18.9227,VALID,194,VALID,1.36779,
2007-11-23, 00:23:00,VALID,917.577,VALID,0,VALID,100,VALID,0,VALID,18.903,VALID,198,VALID,1.46457,
2007-11-23, 00:24:00,VALID,917.548,VALID,0,VALID,100,VALID,0,VALID,18.9197,VALID,214,VALID,1.63015,
2007-11-23, 00:25:00,VALID,917.534,VALID,0,VALID,100,VALID,-0.0169808,VALID,18.9262,VALID,207,VALID,1.32552,
2007-11-23, 00:26:00,VALID,917.527,VALID,0,VALID,100,VALID,0,VALID,18.913,VALID,199,VALID,1.34096,
2007-11-23, 00:27:00,VALID,917.506,VALID,0,VALID,100,VALID,0,VALID,18.91,VALID,194,VALID,1.23401,
2007-11-23, 00:28:00,VALID,917.498,VALID,0,VALID,100,VALID,-0.0339617,VALID,18.8838,VALID,205,VALID,1.11939,
2007-11-23, 00:29:00,VALID,917.495,VALID,0,VALID,100,VALID,0,VALID,18.8669,VALID,192,VALID,0.935902,
2007-11-23, 00:30:00,VALID,917.475,VALID,0,VALID,100,VALID,0,VALID,18.8746,VALID,195,VALID,1.00573,
2007-11-23, 00:31:00,VALID,917.452,VALID,0,VALID,100,VALID,0,VALID,18.8414,VALID,186,VALID,0.888808,
2007-11-23, 00:32:00,VALID,917.428,VALID,0,VALID,100,VALID,0.0169808,VALID,18.8287,VALID,188,VALID,0.668555,
2007-11-23, 00:33:00,VALID,917.406,VALID,0,VALID,100,VALID,0,VALID,18.8254,VALID,196,VALID,0.705256,
2007-11-23, 00:34:00,VALID,917.38,VALID,0,VALID,100,VALID,0,VALID,18.8122,VALID,186,VALID,0.912287,
2007-11-23, 00:35:00,VALID,917.353,VALID,0,VALID,100,VALID,0,VALID,18.7993,VALID,180,VALID,1.01634,
2007-11-23, 00:36:00,VALID,917.324,VALID,0,VALID,100,VALID,0,VALID,18.7923,VALID,180,VALID,1.10176,
2007-11-23, 00:37:00,VALID,917.308,VALID,0,VALID,100,VALID,0.0169808,VALID,18.8122,VALID,199,VALID,1.34393,
2007-11-23, 00:38:00,VALID,917.298,VALID,0,VALID,100,VALID,0.0169808,VALID,18.809,VALID,188,VALID,1.42931,
2007-11-23, 00:39:00,VALID,917.287,VALID,0,VALID,100,VALID,0.0339617,VALID,18.8155,VALID,200,VALID,1.34947,
2007-11-23, 00:40:00,VALID,917.275,VALID,0,VALID,100,VALID,0.0679233,VALID,18.8125,VALID,195,VALID,0.907738,
2007-11-23, 00:41:00,VALID,917.259,VALID,0,VALID,100,VALID,-0.0849042,VALID,18.8039,VALID,186,VALID,1.1141,
2007-11-23, 00:42:00,VALID,917.244,VALID,0,VALID,100,VALID,-0.101885,VALID,18.7912,VALID,195,VALID,1.07329,
2007-11-23, 00:43:00,VALID,917.224,VALID,0,VALID,100,VALID,-0.0849042,VALID,18.7845,VALID,185,VALID,1.14453,
2007-11-23, 00:44:00,VALID,917.208,VALID,0,VALID,100,VALID,-0.0849042,VALID,18.7815,VALID,191,VALID,1.29539,
2007-11-23, 00:45:00,VALID,917.177,VALID,0,VALID,100,VALID,-0.118866,VALID,18.7655,VALID,183,VALID,0.919085,
2007-11-23, 00:46:00,VALID,917.17,VALID,0,VALID,100,VALID,-0.101885,VALID,18.752,VALID,180,VALID,1.24257,
2007-11-23, 00:47:00,VALID,917.156,VALID,0,VALID,100,VALID,-0.101885,VALID,18.7263,VALID,165,VALID,0.885603,
2007-11-23, 00:48:00,VALID,917.153,VALID,0,VALID,100,VALID,-0.101885,VALID,18.7298,VALID,144,VALID,1.027,
2007-11-23, 00:49:00,VALID,917.143,VALID,0,VALID,100,VALID,-0.0849042,VALID,18.6936,VALID,125,VALID,0.865327,
2007-11-23, 00:50:00,VALID,917.135,VALID,0,VALID,100,VALID,-0.0679233,VALID,18.6644,VALID,139,VALID,0.930043,
2007-11-23, 00:51:00,VALID,917.11,VALID,0,VALID,100,VALID,-0.0849042,VALID,18.6517,VALID,161,VALID,0.726744,
2007-11-23, 00:52:00,VALID,917.112,VALID,0,VALID,100,VALID,-0.101885,VALID,18.6357,VALID,156,VALID,0.813643,
2007-11-23, 00:53:00,VALID,917.094,VALID,0,VALID,100,VALID,-0.0679233,VALID,18.6255,VALID,170,VALID,1.24981,
2007-11-23, 00:54:00,VALID,917.091,VALID,0,VALID,100,VALID,-0.101885,VALID,18.6225,VALID,163,VALID,1.20174,
2007-11-23, 00:55:00,VALID,917.081,VALID,0,VALID,100,VALID,-0.186789,VALID,18.6524,VALID,165,VALID,1.10605,
2007-11-23, 00:56:00,VALID,917.086,VALID,0,VALID,100,VALID,-0.135847,VALID,18.6482,VALID,166,VALID,0.346112,
2007-11-23, 00:57:00,VALID,917.072,VALID,0,VALID,100,VALID,-0.0339617,VALID,18.6438,VALID,172,VALID,1,
2007-11-23, 00:58:00,VALID,917.076,VALID,0,VALID,100,VALID,-0.0169808,VALID,18.6243,VALID,173,VALID,0.863715,
2007-11-23, 00:59:00,VALID,917.091,VALID,0,VALID,100,VALID,0,VALID,18.5949,VALID,164,VALID,0.304142,
2007-11-23, 01:00:00,VALID,917.071,VALID,0,VALID,100,VALID,0,VALID,18.5335,VALID,135,VALID,0.320871,
2007-11-23, 01:01:00,VALID,917.063,VALID,0,VALID,100,VALID,-0.0169808,VALID,18.4684,VALID,104,VALID,0.673971,
2007-11-23, 01:02:00,VALID,917.046,VALID,0,VALID,100,VALID,-0.0169808,VALID,18.4302,VALID,93,VALID,0.543576,
2007-11-23, 01:03:00,VALID,917.046,VALID,0,VALID,100,VALID,-0.0339617,VALID,18.3843,VALID,93,VALID,0.502544,
2007-11-23, 01:04:00,VALID,917.027,VALID,0,VALID,100,VALID,-0.0339617,VALID,18.3651,VALID,93,VALID,0.597266,
2007-11-23, 01:05:00,VALID,917.011,VALID,0,VALID,100,VALID,0,VALID,18.3781,VALID,98,VALID,0.520712,
2007-11-23, 01:06:00,VALID,917.011,VALID,0,VALID,100,VALID,-0.0169808,VALID,18.3973,VALID,130,VALID,0.75434,
2007-11-23, 01:07:00,VALID,916.996,VALID,0,VALID,100,VALID,-0.0169808,VALID,18.4205,VALID,145,VALID,0.638951,
2007-11-23, 01:08:00,VALID,916.987,VALID,0,VALID,100,VALID,0,VALID,18.3881,VALID,145,VALID,0.48137,
2007-11-23, 01:09:00,VALID,916.965,VALID,0,VALID,100,VALID,-0.0169808,VALID,18.3098,VALID,145,VALID,0.537704,
2007-11-23, 01:10:00,VALID,916.954,VALID,0,VALID,100,VALID,-0.0169808,VALID,18.2806,VALID,145,VALID,0.445313,
2007-11-23, 01:11:00,VALID,916.926,VALID,0,VALID,100,VALID,-0.0169808,VALID,18.2773,VALID,145,VALID,0.461124,
2007-11-23, 01:12:00,VALID,916.907,VALID,0,VALID,100,VALID,0,VALID,18.2773,VALID,145,VALID,0.592988,
2007-11-23, 01:13:00,VALID,916.89,VALID,0,VALID,100,VALID,-0.0169808,VALID,18.3035,VALID,147,VALID,0.846112,
2007-11-23, 01:14:00,VALID,916.887,VALID,0,VALID,100,VALID,0.0169808,VALID,18.3,VALID,156,VALID,0.952934,
2007-11-23, 01:15:01,VALID,916.877,VALID,0,VALID,100,VALID,0,VALID,18.2933,VALID,161,VALID,1.07515,
2007-11-23, 01:16:00,VALID,916.893,VALID,0,VALID,100,VALID,0.0169808,VALID,18.3063,VALID,168,VALID,1.10052,
2007-11-23, 01:17:01,VALID,916.894,VALID,0,VALID,100,VALID,0,VALID,18.3033,VALID,174,VALID,1.05174,
2007-11-23, 01:18:00,VALID,916.892,VALID,0,VALID,100,VALID,0,VALID,18.3128,VALID,180,VALID,1.01472,
2007-11-23, 01:19:00,VALID,916.877,VALID,0,VALID,100,VALID,0.0169808,VALID,18.3225,VALID,180,VALID,1.1131,
2007-11-23, 01:20:00,VALID,916.88,VALID,0,VALID,100,VALID,0,VALID,18.3063,VALID,180,VALID,1.09821,
2007-11-23, 01:21:00,VALID,916.863,VALID,0,VALID,100,VALID,0,VALID,18.2961,VALID,176,VALID,0.94093,
2007-11-23, 01:22:00,VALID,916.839,VALID,0,VALID,100,VALID,0.0169808,VALID,18.2963,VALID,175,VALID,0.843572,
2007-11-23, 01:23:00,VALID,916.806,VALID,0,VALID,100,VALID,0,VALID,18.2966,VALID,170,VALID,0.877486,
2007-11-23, 01:24:01,VALID,916.786,VALID,0,VALID,100,VALID,0.0169808,VALID,18.2868,VALID,167,VALID,0.896341,
2007-11-23, 01:25:00,VALID,916.771,VALID,0,VALID,100,VALID,0.0169808,VALID,18.2546,VALID,156,VALID,0.690518,
2007-11-23, 01:26:00,VALID,916.749,VALID,0,VALID,100,VALID,0.0169808,VALID,18.2349,VALID,163,VALID,0.954654,
2007-11-23, 01:27:00,VALID,916.737,VALID,0,VALID,100,VALID,0,VALID,18.1993,VALID,168,VALID,1.01944,
2007-11-23, 01:28:00,VALID,916.729,VALID,0,VALID,100,VALID,0,VALID,18.1798,VALID,178,VALID,0.93968,
2007-11-23, 01:29:00,VALID,916.737,VALID,0,VALID,100,VALID,0.0169808,VALID,18.1798,VALID,187,VALID,1.01029,
2007-11-23, 01:30:01,VALID,916.725,VALID,0,VALID,100,VALID,-0.0169808,VALID,18.193,VALID,187,VALID,1.15365,
2007-11-23, 01:31:00,VALID,916.721,VALID,0,VALID,100,VALID,-0.0339617,VALID,18.2289,VALID,187,VALID,1.02039,
2007-11-23, 01:32:01,VALID,916.716,VALID,0,VALID,100,VALID,0,VALID,18.2285,VALID,180,VALID,1.01172,
2007-11-23, 01:33:00,VALID,916.706,VALID,0,VALID,100,VALID,-0.0169808,VALID,18.2449,VALID,179,VALID,0.902083,
2007-11-23, 01:34:01,VALID,916.692,VALID,0,VALID,100,VALID,0,VALID,18.2477,VALID,179,VALID,0.970312,
2007-11-23, 01:35:00,VALID,916.68,VALID,0,VALID,100,VALID,0.0169808,VALID,18.2479,VALID,186,VALID,1.04315,
2007-11-23, 01:36:01,VALID,916.662,VALID,0,VALID,100,VALID,0.0169808,VALID,18.2414,VALID,186,VALID,1.0435,
2007-11-23, 01:37:00,VALID,916.645,VALID,0,VALID,100,VALID,0.0169808,VALID,18.2442,VALID,186,VALID,1.23238,
2007-11-23, 01:38:00,VALID,916.622,VALID,0,VALID,100,VALID,0,VALID,18.2544,VALID,188,VALID,1.19531,
2007-11-23, 01:39:00,VALID,916.598,VALID,0,VALID,100,VALID,0,VALID,18.2509,VALID,188,VALID,0.929297,
2007-11-23, 01:40:00,VALID,916.585,VALID,0,VALID,100,VALID,0.0169808,VALID,18.238,VALID,185,VALID,1.0071,
2007-11-23, 01:41:01,VALID,916.55,VALID,0,VALID,100,VALID,0,VALID,18.2349,VALID,184,VALID,0.838415,
2007-11-23, 01:42:00,VALID,916.529,VALID,0,VALID,100,VALID,-0.101885,VALID,18.2298,VALID,185,VALID,0.859545,
2007-11-23, 01:43:00,VALID,916.518,VALID,0,VALID,100,VALID,-0.118866,VALID,18.2268,VALID,189,VALID,0.760231,
2007-11-23, 01:44:00,VALID,916.493,VALID,0,VALID,100,VALID,-0.118866,VALID,18.2101,VALID,187,VALID,1.01777,
2007-11-23, 01:45:01,VALID,916.482,VALID,0,VALID,100,VALID,-0.101885,VALID,18.2106,VALID,186,VALID,1.15137,
2007-11-23, 01:46:00,VALID,916.465,VALID,0,VALID,100,VALID,-0.118866,VALID,18.2266,VALID,186,VALID,1.21927,
2007-11-23, 01:47:00,VALID,916.446,VALID,0,VALID,100,VALID,-0.101885,VALID,18.2201,VALID,187,VALID,1.20117,
2007-11-23, 01:48:01,VALID,916.44,VALID,0,VALID,100,VALID,-0.135847,VALID,18.2236,VALID,187,VALID,1.1887,
2007-11-23, 01:49:00,VALID,916.437,VALID,0,VALID,100,VALID,-0.101885,VALID,18.2201,VALID,187,VALID,1.19668,
2007-11-23, 01:50:00,VALID,916.42,VALID,0,VALID,100,VALID,-0.101885,VALID,18.2234,VALID,191,VALID,1.06143,
2007-11-23, 01:51:00,VALID,916.412,VALID,0,VALID,100,VALID,-0.118866,VALID,18.2234,VALID,191,VALID,0.938388,
2007-11-23, 01:52:01,VALID,916.414,VALID,0,VALID,100,VALID,-0.101885,VALID,18.2199,VALID,193,VALID,0.957961,
2007-11-23, 01:53:00,VALID,916.392,VALID,0,VALID,100,VALID,-0.101885,VALID,18.2166,VALID,193,VALID,0.918786,
2007-11-23, 01:54:01,VALID,916.383,VALID,0,VALID,100,VALID,-0.118866,VALID,18.2039,VALID,193,VALID,0.836846,
2007-11-23, 01:55:01,VALID,916.377,VALID,0,VALID,100,VALID,-0.101885,VALID,18.2006,VALID,193,VALID,0.802641,
2007-11-23, 01:56:00,VALID,916.372,VALID,0,VALID,100,VALID,-0.101885,VALID,18.2039,VALID,193,VALID,0.43099,
2007-11-23, 01:57:00,VALID,916.37,VALID,0,VALID,100,VALID,0,VALID,18.1863,VALID,193,VALID,0.313072,
2007-11-23, 01:58:01,VALID,916.372,VALID,0,VALID,100,VALID,0,VALID,18.1636,VALID,193,VALID,0.0277158,
2007-11-23, 01:59:01,VALID,916.369,VALID,0,VALID,100,VALID,0,VALID,18.1277,VALID,193,VALID,0,
2007-11-23, 02:00:00,VALID,916.346,VALID,0,VALID,100,VALID,-0.0169808,VALID,18.102,VALID,193,VALID,0,
2007-11-23, 02:01:00,VALID,916.345,VALID,0,VALID,100,VALID,0,VALID,18.0855,VALID,193,VALID,0,
2007-11-23, 02:02:00,VALID,916.311,VALID,0,VALID,100,VALID,0,VALID,18.0698,VALID,193,VALID,0.209339,
2007-11-23, 02:03:00,VALID,916.284,VALID,0,VALID,100,VALID,0.0169808,VALID,18.0499,VALID,190,VALID,0.695668,
2007-11-23, 02:04:01,VALID,916.248,VALID,0,VALID,100,VALID,0,VALID,18.0371,VALID,180,VALID,0.800223,
2007-11-23, 02:05:00,VALID,916.22,VALID,0,VALID,100,VALID,0.0169808,VALID,18.0079,VALID,169,VALID,0.96782,
2007-11-23, 02:06:01,VALID,916.198,VALID,0,VALID,100,VALID,0,VALID,17.9892,VALID,172,VALID,0.826126,
2007-11-23, 02:07:00,VALID,916.195,VALID,0,VALID,100,VALID,0,VALID,17.9429,VALID,183,VALID,0.816501,
2007-11-23, 02:08:01,VALID,916.184,VALID,0,VALID,100,VALID,0.0169808,VALID,17.9301,VALID,184,VALID,0.771802,
2007-11-23, 02:09:01,VALID,916.192,VALID,0,VALID,100,VALID,0.0169808,VALID,17.9137,VALID,185,VALID,0.736328,
2007-11-23, 02:10:01,VALID,916.194,VALID,0,VALID,100,VALID,0,VALID,17.894,VALID,191,VALID,0.810501,
2007-11-23, 02:11:01,VALID,916.193,VALID,0,VALID,100,VALID,0.0169808,VALID,17.8975,VALID,191,VALID,1.02689,
2007-11-23, 02:12:01,VALID,916.184,VALID,0,VALID,100,VALID,0.0169808,VALID,17.904,VALID,196,VALID,1.11137,
2007-11-23, 02:13:01,VALID,916.171,VALID,0,VALID,100,VALID,0,VALID,17.9137,VALID,192,VALID,1.07794,
2007-11-23, 02:14:01,VALID,916.155,VALID,0,VALID,100,VALID,0.0339617,VALID,17.9202,VALID,190,VALID,1.08384,
2007-11-23, 02:15:01,VALID,916.135,VALID,0,VALID,100,VALID,0.0169808,VALID,17.9494,VALID,184,VALID,1.14935,
2007-11-23, 02:16:01,VALID,916.128,VALID,0,VALID,100,VALID,-0.0169808,VALID,17.9593,VALID,183,VALID,1.01119,
2007-11-23, 02:17:01,VALID,916.112,VALID,0,VALID,100,VALID,0.0169808,VALID,17.9593,VALID,183,VALID,1.12361,
2007-11-23, 02:18:01,VALID,916.092,VALID,0,VALID,100,VALID,0.0169808,VALID,17.9658,VALID,187,VALID,0.941229,
2007-11-23, 02:19:00,VALID,916.082,VALID,0,VALID,100,VALID,-0.0169808,VALID,17.9658,VALID,182,VALID,0.940476,
2007-11-23, 02:20:00,VALID,916.064,VALID,0,VALID,100,VALID,0,VALID,17.9623,VALID,181,VALID,1.02943,
2007-11-23, 02:21:00,VALID,916.049,VALID,0,VALID,100,VALID,0.0169808,VALID,17.9591,VALID,178,VALID,1.21711,
2007-11-23, 02:22:00,VALID,916.036,VALID,0,VALID,100,VALID,0,VALID,17.9658,VALID,179,VALID,0.852289,
2007-11-23, 02:23:00,VALID,916.022,VALID,0,VALID,100,VALID,0,VALID,17.9593,VALID,178,VALID,0.851199,
2007-11-23, 02:24:00,VALID,916.022,VALID,0,VALID,100,VALID,0,VALID,17.9658,VALID,181,VALID,0.773611,
2007-11-23, 02:25:00,VALID,916.01,VALID,0,VALID,100,VALID,0,VALID,17.9496,VALID,183,VALID,0.967507,
2007-11-23, 02:26:00,VALID,915.992,VALID,0,VALID,100,VALID,-0.0509425,VALID,17.9496,VALID,184,VALID,0.85973,
2007-11-23, 02:27:00,VALID,915.966,VALID,0,VALID,100,VALID,-0.0849042,VALID,17.9602,VALID,182,VALID,0.94308,
2007-11-23, 02:28:00,VALID,915.933,VALID,0,VALID,100,VALID,-0.0339617,VALID,17.9567,VALID,180,VALID,0.815163,
2007-11-23, 02:29:00,VALID,915.931,VALID,0,VALID,100,VALID,-0.0509425,VALID,17.9565,VALID,175,VALID,1.11955,
2007-11-23, 02:30:00,VALID,915.9,VALID,0,VALID,100,VALID,-0.0509425,VALID,17.9834,VALID,174,VALID,0.962713,
2007-11-23, 02:31:00,VALID,915.882,VALID,0,VALID,100,VALID,-0.0679233,VALID,17.9799,VALID,174,VALID,0.829368,
2007-11-23, 02:32:00,VALID,915.865,VALID,0,VALID,100,VALID,-0.0509425,VALID,17.9635,VALID,169,VALID,0.63151,
2007-11-23, 02:33:00,VALID,915.86,VALID,0,VALID,100,VALID,-0.0679233,VALID,17.954,VALID,169,VALID,0.746838,
2007-11-23, 02:34:00,VALID,915.856,VALID,0,VALID,100,VALID,-0.0679233,VALID,17.9375,VALID,171,VALID,0.496007,
2007-11-23, 02:35:00,VALID,915.839,VALID,0,VALID,100,VALID,-0.0849042,VALID,17.9014,VALID,176,VALID,0,
2007-11-23, 02:36:00,VALID,915.834,VALID,0,VALID,100,VALID,-0.0169808,VALID,17.8752,VALID,176,VALID,0,
2007-11-23, 02:37:00,VALID,915.813,VALID,0,VALID,100,VALID,-0.0679233,VALID,17.8727,VALID,176,VALID,0,
2007-11-23, 02:38:00,VALID,915.802,VALID,0,VALID,100,VALID,-0.0339617,VALID,17.8564,VALID,176,VALID,0,
2007-11-23, 02:39:00,VALID,915.785,VALID,0,VALID,100,VALID,-0.0339617,VALID,17.8435,VALID,176,VALID,0.451215,
2007-11-23, 02:40:00,VALID,915.785,VALID,0,VALID,100,VALID,-0.0509425,VALID,17.85,VALID,176,VALID,0.700763,
2007-11-23, 02:41:00,VALID,915.768,VALID,0,VALID,100,VALID,-0.0509425,VALID,17.8469,VALID,173,VALID,0.61452,
2007-11-23, 02:42:00,VALID,915.764,VALID,0,VALID,100,VALID,-0.0509425,VALID,17.8469,VALID,169,VALID,0.813021,
2007-11-23, 02:43:00,VALID,915.77,VALID,0,VALID,100,VALID,-0.0509425,VALID,17.8469,VALID,169,VALID,0.636719,
2007-11-23, 02:44:00,VALID,915.768,VALID,0,VALID,100,VALID,-0.0339617,VALID,17.8233,VALID,170,VALID,0.158681,
2007-11-23, 02:45:00,VALID,915.782,VALID,0,VALID,100,VALID,-0.0169808,VALID,17.8039,VALID,172,VALID,0.0983665,
2007-11-23, 02:46:00,VALID,915.781,VALID,0,VALID,100,VALID,-0.0509425,VALID,17.7944,VALID,172,VALID,0.446221,
2007-11-23, 02:47:00,VALID,915.788,VALID,0,VALID,100,VALID,-0.0849042,VALID,17.7784,VALID,172,VALID,0.393555,
2007-11-23, 02:48:00,VALID,915.803,VALID,0,VALID,100,VALID,-0.0339617,VALID,17.7752,VALID,172,VALID,0.422049,
2007-11-23, 02:49:00,VALID,915.808,VALID,0,VALID,100,VALID,-0.0679233,VALID,17.7589,VALID,172,VALID,0.0109012,
2007-11-23, 02:50:00,VALID,915.794,VALID,0,VALID,100,VALID,-0.0509425,VALID,17.746,VALID,172,VALID,0,
2007-11-23, 02:51:00,VALID,915.776,VALID,0,VALID,100,VALID,-0.0339617,VALID,17.7235,VALID,176,VALID,0,
2007-11-23, 02:52:00,VALID,915.782,VALID,0,VALID,100,VALID,-0.0509425,VALID,17.7237,VALID,181,VALID,0.103016,
2007-11-23, 02:53:00,VALID,915.761,VALID,0,VALID,100,VALID,-0.101885,VALID,17.7194,VALID,181,VALID,0.885476,
2007-11-23, 02:54:00,VALID,915.74,VALID,0,VALID,100,VALID,-0.0509425,VALID,17.7552,VALID,181,VALID,0.820313,
2007-11-23, 02:55:00,VALID,915.737,VALID,0,VALID,100,VALID,-0.0679233,VALID,17.7756,VALID,182,VALID,0.887305,
2007-11-23, 02:56:00,VALID,915.733,VALID,0,VALID,100,VALID,-0.0679233,VALID,17.7786,VALID,182,VALID,0.753993,
2007-11-23, 02:57:00,VALID,915.73,VALID,0,VALID,100,VALID,-0.0339617,VALID,17.7689,VALID,182,VALID,0.540305,
2007-11-23, 02:58:00,VALID,915.719,VALID,0,VALID,100,VALID,-0.0509425,VALID,17.7754,VALID,182,VALID,0.642027,
2007-11-23, 02:59:00,VALID,915.72,VALID,0,VALID,100,VALID,-0.0169808,VALID,17.7944,VALID,182,VALID,0.574886,
2007-11-23, 03:00:00,VALID,915.703,VALID,0,VALID,100,VALID,-0.0339617,VALID,17.7974,VALID,175,VALID,0.745384,
2007-11-23, 03:01:00,VALID,915.7,VALID,0,VALID,100,VALID,-0.0169808,VALID,17.7942,VALID,170,VALID,0.805027,
2007-11-23, 03:02:00,VALID,915.699,VALID,0,VALID,100,VALID,-0.0339617,VALID,17.8043,VALID,170,VALID,0.795945,
2007-11-23, 03:03:00,VALID,915.707,VALID,0,VALID,100,VALID,-0.0169808,VALID,17.8076,VALID,170,VALID,0.948958,
2007-11-23, 03:04:00,VALID,915.704,VALID,0,VALID,100,VALID,0,VALID,17.8071,VALID,170,VALID,0.900915,
2007-11-23, 03:05:00,VALID,915.696,VALID,0,VALID,100,VALID,0,VALID,17.7907,VALID,170,VALID,0.934952,
2007-11-23, 03:06:00,VALID,915.69,VALID,0,VALID,100,VALID,-0.0169808,VALID,17.8004,VALID,170,VALID,0.900213,
2007-11-23, 03:07:00,VALID,915.672,VALID,0,VALID,100,VALID,-0.0169808,VALID,17.8171,VALID,170,VALID,0.932664,
2007-11-23, 03:08:00,VALID,915.67,VALID,0,VALID,100,VALID,-0.0169808,VALID,17.8071,VALID,166,VALID,1.04931,
2007-11-23, 03:09:00,VALID,915.664,VALID,0,VALID,100,VALID,-0.0169808,VALID,17.8201,VALID,165,VALID,1.03423,
2007-11-23, 03:10:00,VALID,915.665,VALID,0,VALID,100,VALID,-0.0169808,VALID,17.8169,VALID,163,VALID,0.833079,
2007-11-23, 03:11:00,VALID,915.655,VALID,0,VALID,100,VALID,0,VALID,17.8104,VALID,163,VALID,0.826637,
2007-11-23, 03:12:00,VALID,915.654,VALID,0,VALID,100,VALID,0,VALID,17.8004,VALID,170,VALID,0.880145,
2007-11-23, 03:13:00,VALID,915.646,VALID,0,VALID,100,VALID,-0.0169808,VALID,17.758,VALID,174,VALID,0.983445,
2007-11-23, 03:14:00,VALID,915.646,VALID,0,VALID,100,VALID,-0.0509425,VALID,17.7353,VALID,177,VALID,0.928943,
2007-11-23, 03:15:00,VALID,915.631,VALID,0,VALID,100,VALID,0,VALID,17.7194,VALID,177,VALID,0.836979,
2007-11-23, 03:16:00,VALID,915.636,VALID,0,VALID,100,VALID,-0.0509425,VALID,17.6999,VALID,178,VALID,0.922053,
2007-11-23, 03:17:00,VALID,915.622,VALID,0,VALID,100,VALID,0.0169808,VALID,17.6962,VALID,181,VALID,1.12012,
2007-11-23, 03:18:00,VALID,915.624,VALID,0,VALID,100,VALID,-0.0169808,VALID,17.6895,VALID,182,VALID,1.07465,
2007-11-23, 03:19:00,VALID,915.627,VALID,0,VALID,100,VALID,0,VALID,17.6735,VALID,182,VALID,1.10658,
2007-11-23, 03:20:00,VALID,915.618,VALID,0,VALID,100,VALID,0.0169808,VALID,17.6573,VALID,187,VALID,1.05051,
2007-11-23, 03:21:00,VALID,915.621,VALID,0,VALID,100,VALID,0.0339617,VALID,17.6087,VALID,191,VALID,1.12969,
2007-11-23, 03:22:00,VALID,915.64,VALID,0,VALID,100,VALID,0.0169808,VALID,17.5631,VALID,195,VALID,1.03303,
2007-11-23, 03:23:00,VALID,915.636,VALID,0,VALID,100,VALID,0.0339617,VALID,17.5207,VALID,198,VALID,0.806402,
2007-11-23, 03:24:00,VALID,915.636,VALID,0,VALID,100,VALID,0,VALID,17.479,VALID,198,VALID,0.972739,
2007-11-23, 03:25:00,VALID,915.615,VALID,0,VALID,100,VALID,0,VALID,17.4498,VALID,198,VALID,0.992543,
2007-11-23, 03:26:00,VALID,915.602,VALID,0,VALID,100,VALID,0.0169808,VALID,17.4141,VALID,191,VALID,1.09226,
2007-11-23, 03:27:00,VALID,915.584,VALID,0,VALID,100,VALID,-0.0849042,VALID,17.3926,VALID,189,VALID,1.12519,
2007-11-23, 03:28:00,VALID,915.565,VALID,0,VALID,100,VALID,-0.101885,VALID,17.399,VALID,190,VALID,1.01349,
2007-11-23, 03:29:00,VALID,915.56,VALID,0,VALID,100,VALID,-0.101885,VALID,17.3861,VALID,185,VALID,0.881882,
2007-11-23, 03:30:00,VALID,915.556,VALID,0,VALID,100,VALID,-0.0849042,VALID,17.4252,VALID,181,VALID,0.916016,
2007-11-23, 03:31:00,VALID,915.559,VALID,0,VALID,100,VALID,-0.118866,VALID,17.4576,VALID,181,VALID,0.721912,
2007-11-23, 03:32:00,VALID,915.564,VALID,0,VALID,100,VALID,-0.101885,VALID,17.4736,VALID,181,VALID,0.611374,
2007-11-23, 03:33:00,VALID,915.564,VALID,0,VALID,100,VALID,-0.0849042,VALID,17.4699,VALID,177,VALID,0.690451,
2007-11-23, 03:34:00,VALID,915.573,VALID,0,VALID,100,VALID,-0.0679233,VALID,17.4738,VALID,174,VALID,0.697443,
2007-11-23, 03:35:00,VALID,915.568,VALID,0,VALID,100,VALID,-0.118866,VALID,17.4769,VALID,180,VALID,0.817294,
2007-11-23, 03:36:00,VALID,915.565,VALID,0,VALID,100,VALID,-0.101885,VALID,17.4931,VALID,189,VALID,0.845508,
2007-11-23, 03:37:00,VALID,915.55,VALID,0,VALID,100,VALID,-0.101885,VALID,17.5261,VALID,189,VALID,0.485518,
2007-11-23, 03:38:00,VALID,915.535,VALID,0,VALID,100,VALID,-0.0849042,VALID,17.5283,VALID,189,VALID,0.824219,
2007-11-23, 03:39:00,VALID,915.529,VALID,0,VALID,100,VALID,-0.101885,VALID,17.5841,VALID,181,VALID,0.952035,
2007-11-23, 03:40:00,VALID,915.526,VALID,0,VALID,100,VALID,-0.0679233,VALID,17.5998,VALID,178,VALID,0.84811,
2007-11-23, 03:41:00,VALID,915.526,VALID,0,VALID,100,VALID,-0.118866,VALID,17.6332,VALID,177,VALID,1.17374,